COSMOS 2251 DEB, 34590

Orbit data source: Space-Track

COSMOS 2251 DEB, 34590 is space debris in LEO originally from a launch on Wed, 16 Jun 1993 UTC launched from the Plesetsk Missile And Space Complex (PKMTR). The debris from Iridium 33, an American commercial communications satellite, has been tracked extensively since its accidental collision with the defunct Russian satellite Cosmos 2251 in 2009. This event, occurring at high speed in low Earth orbit (LEO), generated thousands of pieces of space debris, significantly increasing the risk of further collisions. The Iridium 33 debris cloud has impacted space traffic management and orbital debris mitigation strategies, making it a subject of ongoing study in space situational awareness.

Loading next visibility...
Identifier
34590, 1993-036WC
Orbit
LEO
Country
Flag of CISCIS
Related business
Manufacturer
Unknown
Mission
Spacecraft
Bus & Motor
Unknown
Mass
Unknown
Launch date (UTC)
1993-06-16 (33 years ago)
Launch vehicle
Unknown
Launch site
Plesetsk Missile And Space Complex (PKMTR)
Object type
Payload
Rocket body
Debris
Shape & HBR
Unknown shape, 0.1 m
Radar Cross Section
Medium (>0.1 m² and <1 m²)

Expand to show TLE details & history
Last TLE update: 11 hours ago

TLE from 11 hours ago
0 COSMOS 2251 DEB
1 34590U 93036WC  26208.11163594  .00000370  00000-0  89910-4 0  9991
2 34590  74.0423 254.2325 0070061 325.5465  56.1826 14.55072071924139
Epoch: 2026-07-27T02:40Z
TLE epoch observation values (Epoch: 2026-07-27T02:40:45.345Z)
Latitude
21.51041°
Longitude
-84.32054°
Altitude
684.082 km
Speed
7.531 km/s
True Right ascension
17h 22m 40s
True Declination
21° 23' 32"
Sunlit
Object was in full shadow at epoch
Visualization orbit readout
Latitude
Unknown
Longitude
Unknown
Altitude
Unknown
Speed
Unknown
Apparent Right ascension
Unknown
Apparent Declination
Unknown
Sunlit
N/A
Visualization observer readout
Local Sidereal Time
03:07:12
Azimuth
Unknown
Elevation
Unknown
Doppler factor
Unknown
Orbital elements
Apogee altitude
756.37 km
Perigee altitude
657.096 km
Semi-major axis
7,084.87 km
Eccentricity
0.00701
Inclination
74.0423°
RAAN
254.2325°
Arg. of periapsis
325.5465°
True anomaly
56.85286°
Mean anomaly
56.1826°
Eccentric anomaly
56.51741°
Mean motion
3.63953 °/min
Orbital period
98.91 mins
BSTAR
0.00008991
Loading maneuver chart data...
Computing Atmospheric mass density...

Documentation

Showing up to 5 results
|